Location: Killam
(52.7910°N, 111.8608°W)
Time: 14:56:11
(UTC+00:00)

Injun/Solrad 3 - Pass Details

Date: 18 February 2026
Orbit: 872 x 984 km, 66.8° (Epoch: 7 March)

Event Time Altitude Azimuth Distance (km) Brightness Sun altitude
Rises 04:28:42 0° 315° (NW) 3,575 11.9 -33.8°
Reaches altitude 10° 04:31:35 10° 304° (WNW) 2,647 11.1 -34.1°
Maximum altitude 04:36:32 26° 250° (WSW) 1,778 9.6 -34.8°
Enters shadow 04:37:48 24° 231° (SW) 1,853 9.6 -34.9°
